Location: Brno
(49.2000°N, 16.6330°E)
Time: 04:14:33
(UTC+02:00)

Vanguard 3 - Pass Details

Date: 01 August 2021
Orbit: 510 x 3260 km, 33.3° (Epoch: 16 September)

Event Time Altitude Azimuth Distance (km) Brightness Sun altitude
Rises 15:45:51 0° 175° (S) 5,128 11.5 44.3°
Reaches altitude 10° 15:52:05 10° 149° (SSE) 4,774 11.1 43.4°
Maximum altitude 15:57:08 13° 128° (SE) 4,982 11.1 42.6°
Drops below altitude 10° 16:02:53 10° 107° (ESE) 5,626 11.2 41.8°
Sets 16:11:59 0° 85° (E) 7,081 11.5 40.4°
